| time (UTC) | temp C | wind direction | speed KPH | gust KPH | rain 1hr cm | rain 24hr cm | rain mn cm | humidity % | barometer mb |
| 20260831023007 | 22 | 58 | 3.2 | 12.9 | 0.00 | 0.00 | 0.00 | 87 | 1006.7 |
| 20260831021630 | 22 | 93 | 4.8 | 16.1 | 0.00 | 0.00 | 0.00 | 87 | 1006.5 |
| 20260831020006 | 23 | 98 | 8.0 | 16.1 | 0.00 | 0.00 | 0.00 | 86 | 1006.4 |
| 20260831014515 | 23 | 92 | 9.7 | 14.5 | 0.00 | 0.00 | 0.00 | 85 | 1006.4 |
| 20260831013010 | 23 | 88 | 6.4 | 14.5 | 0.00 | 0.00 | 0.00 | 85 | 1006.3 |
| 20260831011510 | 23 | 63 | 4.8 | 16.1 | 0.00 | 0.00 | 0.00 | 85 | 1006.3 |
| 20260831010007 | 23 | 81 | 6.4 | 20.9 | 0.00 | 0.00 | 0.00 | 84 | 1006.2 |
| 20260831004628 | 23 | 71 | 8.0 | 16.1 | 0.00 | 0.00 | 0.00 | 83 | 1006.4 |
| 20260831003124 | 24 | 46 | 4.8 | 16.1 | 0.00 | 0.00 | 0.00 | 82 | 1006.5 |
| 20260831001621 | 24 | 109 | 4.8 | 16.1 | 0.00 | 0.00 | 0.00 | 82 | 1006.6 |
| 20260831000018 | 24 | 92 | 8.0 | 19.3 | 0.00 | 0.00 | 0.00 | 81 | 1006.6 |
| 20260830234507 | 25 | 87 | 9.7 | 17.7 | 0.00 | 0.00 | 0.00 | 79 | 1006.6 |
| 20260830231504 | 25 | 92 | 11.3 | 24.1 | 0.00 | 0.00 | 0.00 | 78 | 1006.6 |
| 20260830230021 | 26 | 110 | 8.0 | 20.9 | 0.00 | 0.00 | 0.00 | 77 | 1006.6 |
| 20260830224515 | 25 | 121 | 9.7 | 20.9 | 0.00 | 0.00 | 0.00 | 79 | 1006.7 |
| 20260830223013 | 25 | 69 | 8.0 | 22.5 | 0.00 | 0.00 | 0.00 | 79 | 1006.7 |
| 20260830221505 | 25 | 110 | 14.5 | 20.9 | 0.00 | 0.00 | 0.00 | 79 | 1007.0 |
| 20260830220015 | 25 | 88 | 9.7 | 20.9 | 0.00 | 0.00 | 0.00 | 79 | 1007.0 |
| 20260830214624 | 25 | 111 | 9.7 | 20.9 | 0.00 | 0.00 | 0.00 | 78 | 1007.2 |
| 20260830213020 | 25 | 145 | 17.7 | 25.7 | 0.00 | 0.00 | 0.00 | 78 | 1007.1 |
| 20260830211629 | 25 | 117 | 12.9 | 27.4 | 0.00 | 0.00 | 0.00 | 78 | 1007.1 |
| 20260830210013 | 25 | 88 | 12.9 | 25.7 | 0.00 | 0.00 | 0.00 | 76 | 1007.1 |
| 20260830204636 | 25 | 98 | 9.7 | 24.1 | 0.00 | 0.00 | 0.00 | 78 | 1006.9 |
| 20260830203013 | 26 | 81 | 8.0 | 17.7 | 0.00 | 0.00 | 0.00 | 79 | 1007.0 |
| 20260830201643 | 25 | 94 | 17.7 | 27.4 | 0.00 | 0.00 | 0.00 | 78 | 1007.2 |
| 20260830200002 | 25 | 92 | 12.9 | 24.1 | 0.00 | 0.00 | 0.00 | 78 | 1007.3 |
| 20260830194513 | 25 | 87 | 11.3 | 24.1 | 0.00 | 0.00 | 0.00 | 77 | 1007.5 |
| 20260830193011 | 25 | 107 | 9.7 | 22.5 | 0.00 | 0.00 | 0.00 | 79 | 1008.1 |
| 20260830191507 | 24 | 83 | 11.3 | 24.1 | 0.00 | 0.00 | 0.00 | 80 | 1008.4 |
| 20260830190015 | 23 | 114 | 8.0 | 20.9 | 0.00 | 0.00 | 0.00 | 81 | 1008.4 |
| 20260830184521 | 23 | 107 | 8.0 | 20.9 | 0.00 | 0.00 | 0.00 | 83 | 1008.5 |
| 20260830183128 | 23 | 101 | 6.4 | 19.3 | 0.00 | 0.00 | 0.00 | 82 | 1008.6 |
| 20260830181513 | 23 | 106 | 11.3 | 25.7 | 0.00 | 0.00 | 0.00 | 80 | 1008.5 |
| 20260830180126 | 23 | 106 | 9.7 | 24.1 | 0.00 | 0.00 | 0.00 | 81 | 1008.3 |
| 20260830174627 | 23 | 83 | 16.1 | 27.4 | 0.00 | 0.00 | 0.00 | 80 | 1008.6 |
| 20260830173010 | 23 | 94 | 6.4 | 22.5 | 0.00 | 0.00 | 0.00 | 82 | 1008.4 |
| 20260830170017 | 22 | 72 | 9.7 | 24.1 | 0.00 | 0.00 | 0.00 | 83 | 1008.1 |
| 20260830164508 | 22 | 79 | 9.7 | 24.1 | 0.00 | 0.03 | 0.00 | 83 | 1008.2 |
| 20260830163006 | 22 | 101 | 9.7 | 19.3 | 0.00 | 0.03 | 0.00 | 83 | 1008.2 |
| 20260830161510 | 22 | 70 | 11.3 | 25.7 | 0.00 | 0.03 | 0.00 | 83 | 1008.5 |
| 20260830160124 | 21 | 26 | 6.4 | 17.7 | 0.00 | 0.03 | 0.00 | 86 | 1008.7 |
| 20260830154513 | 21 | 32 | 11.3 | 19.3 | 0.00 | 0.03 | 0.00 | 87 | 1008.4 |
| 20260830153013 | 20 | 66 | 11.3 | 20.9 | 0.00 | 0.03 | 0.00 | 88 | 1008.5 |
| 20260830151502 | 20 | 16 | 9.7 | 19.3 | 0.00 | 0.03 | 0.00 | 90 | 1008.7 |
| 20260830150017 | 20 | 32 | 8.0 | 17.7 | 0.00 | 0.03 | 0.00 | 91 | 1008.9 |
| 20260830144626 | 20 | 54 | 4.8 | 16.1 | 0.00 | 0.38 | 0.00 | 91 | 1008.7 |
| 20260830143004 | 19 | 90 | 9.7 | 17.7 | 0.00 | 0.38 | 0.00 | 92 | 1008.5 |
| 20260830141508 | 18 | 49 | 8.0 | 17.7 | 0.00 | 0.38 | 0.00 | 92 | 1008.5 |
| 20260830140016 | 18 | 59 | 4.8 | 17.7 | 0.00 | 0.38 | 0.00 | 93 | 1008.2 |
| 20260830134519 | 18 | 60 | 4.8 | 16.1 | 0.00 | 1.60 | 0.00 | 93 | 1008.1 |
| 20260830133130 | 18 | 109 | 6.4 | 22.5 | 0.00 | 1.60 | 0.00 | 93 | 1007.9 |
| 20260830131522 | 18 | 103 | 9.7 | 17.7 | 0.00 | 1.60 | 0.00 | 93 | 1008.6 |
| 20260830130014 | 18 | 72 | 4.8 | 16.1 | 0.00 | 1.60 | 0.00 | 93 | 1008.6 |
| 20260830124629 | 18 | 15 | 6.4 | 16.1 | 0.00 | 2.39 | 0.00 | 93 | 1008.6 |
| 20260830123002 | 18 | 70 | 6.4 | 19.3 | 0.00 | 2.39 | 0.00 | 93 | 1008.4 |
| 20260830121515 | 18 | 69 | 8.0 | 20.9 | 0.00 | 2.39 | 0.00 | 93 | 1008.1 |
| 20260830120003 | 17 | 20 | 4.8 | 14.5 | 0.00 | 2.39 | 0.00 | 93 | 1008.6 |
| 20260830114512 | 17 | 29 | 3.2 | 8.0 | 0.00 | 2.59 | 0.00 | 93 | 1008.3 |
| 20260830113128 | 17 | 52 | 3.2 | 8.0 | 0.00 | 2.59 | 0.00 | 93 | 1008.3 |
| 20260830111516 | 17 | 23 | 1.6 | 8.0 | 0.00 | 2.59 | 0.00 | 93 | 1008.1 |
| 20260830110016 | 17 | 66 | 1.6 | 8.0 | 0.00 | 2.59 | 0.00 | 93 | 1008.0 |
| 20260830104507 | 18 | 59 | 1.6 | 9.7 | 0.00 | 2.59 | 0.00 | 93 | 1008.2 |
| 20260830103011 | 18 | 55 | 3.2 | 14.5 | 0.00 | 2.59 | 0.00 | 93 | 1008.0 |
| 20260830101511 | 18 | 51 | 4.8 | 9.7 | 0.00 | 2.59 | 0.00 | 93 | 1007.8 |
| 20260830100010 | 18 | 55 | 4.8 | 11.3 | 0.00 | 2.59 | 0.00 | 93 | 1008.0 |
| 20260830094627 | 18 | 50 | 3.2 | 11.3 | 0.00 | 2.62 | 0.00 | 93 | 1008.0 |
| 20260830093015 | 18 | 63 | 3.2 | 9.7 | 0.00 | 2.62 | 0.00 | 93 | 1007.9 |
| 20260830091630 | 18 | 32 | 4.8 | 9.7 | 0.00 | 2.62 | 0.00 | 93 | 1008.0 |
| 20260830090009 | 18 | 48 | 3.2 | 9.7 | 0.00 | 2.62 | 0.00 | 93 | 1007.9 |
| 20260830084515 | 18 | 76 | 1.6 | 8.0 | 0.00 | 2.67 | 0.00 | 93 | 1007.7 |
| 20260830083006 | 18 | 80 | 3.2 | 8.0 | 0.00 | 2.67 | 0.00 | 92 | 1007.7 |
| 20260830081625 | 18 | 355 | 0.0 | 9.7 | 0.00 | 2.67 | 0.00 | 92 | 1008.1 |
| 20260830080005 | 18 | 73 | 3.2 | 9.7 | 0.00 | 2.67 | 0.00 | 92 | 1008.0 |
| 20260830074513 | 18 | 63 | 1.6 | 8.0 | 0.00 | 2.67 | 0.00 | 92 | 1008.2 |
| 20260830073010 | 18 | 58 | 1.6 | 9.7 | 0.00 | 2.67 | 0.00 | 92 | 1008.3 |
| 20260830071509 | 18 | 66 | 4.8 | 12.9 | 0.00 | 2.67 | 0.00 | 92 | 1008.3 |
| 20260830070127 | 18 | 71 | 3.2 | 12.9 | 0.00 | 2.67 | 0.00 | 92 | 1008.5 |
| 20260830064515 | 18 | 69 | 6.4 | 9.7 | 0.00 | 2.67 | 0.00 | 92 | 1008.4 |
| 20260830063011 | 18 | 44 | 1.6 | 6.4 | 0.00 | 2.67 | 0.00 | 92 | 1008.6 |
| 20260830061629 | 18 | 47 | 3.2 | 8.0 | 0.00 | 2.67 | 0.00 | 92 | 1008.7 |
| 20260830060127 | 18 | 70 | 3.2 | 8.0 | 0.00 | 2.67 | 0.00 | 92 | 1008.6 |
| 20260830054514 | 18 | 342 | 3.2 | 8.0 | 0.00 | 2.67 | 0.00 | 91 | 1008.8 |
| 20260830053010 | 18 | 64 | 4.8 | 9.7 | 0.00 | 2.67 | 0.00 | 91 | 1009.0 |
| 20260830051501 | 18 | 43 | 3.2 | 8.0 | 0.00 | 2.67 | 0.00 | 91 | 1009.1 |
| 20260830050014 | 19 | 63 | 0.0 | 6.4 | 0.00 | 2.67 | 0.00 | 91 | 1009.1 |
| 20260830044506 | 19 | 69 | 3.2 | 9.7 | 0.00 | 2.67 | 2.67 | 90 | 1009.2 |
| 20260830043004 | 19 | 69 | 3.2 | 8.0 | 0.00 | 2.67 | 2.67 | 90 | 1009.2 |
| 20260830041521 | 19 | 74 | 4.8 | 9.7 | 0.00 | 2.67 | 2.67 | 90 | 1009.4 |
| 20260830040129 | 19 | 59 | 3.2 | 12.9 | 0.00 | 2.67 | 2.67 | 90 | 1009.3 |
| 20260830034508 | 19 | 57 | 3.2 | 12.9 | 0.00 | 2.67 | 2.67 | 89 | 1009.4 |
| 20260830033004 | 20 | 53 | 6.4 | 12.9 | 0.00 | 2.67 | 2.67 | 89 | 1009.4 |
| 20260830031510 | 20 | 94 | 3.2 | 9.7 | 0.00 | 2.67 | 2.67 | 89 | 1009.6 |
| 20260830030014 | 20 | 84 | 3.2 | 14.5 | 0.00 | 2.67 | 2.67 | 89 | 1009.4 |
| 20260830024622 | 20 | 71 | 4.8 | 11.3 | 0.00 | 2.67 | 2.67 | 89 | 1009.2 |